www.pogodaiklimat.ru

Погода и климат >> Архив погоды >> Нигер >> Maradi


ПОГОДА в Maradi

  • Прогноз погоды в Maradi
  • Монитор погоды в Maradi
  • Климат города

АРХИВ ПОГОДЫ в Maradi

Время (UTC), дата Ветер
(напр.,м/с)
 
Видим.   Явления Облачность Т
(С)
Тd
(С)
f
(%)
Тe
(С)
Тes
(С)
Комфортность P
(гПа)
Po
(гПа)
Тmin
(С)
Tmax
(С)
R
(мм)
R24
(мм)
S
(см)
21 7.08 ЮЗ 4 10 км {дождь} 9/0
[Cs]
+23.7 +22.7 94 +31 +31 очень
душно
1013.4 971.7
03 8.08 Ю 2 10 км 9/0
[Ac trans Ci sp]
+24.0 +23.3 96 +32 +32 очень
душно
1012.5 971.0
06 8.08 ЮЗ 4 10 км 9/0
[Ac trans Ci sp]
+23.8 +23.6 99 +32 +32 очень
душно
1013.4 971.8 +23.5 0.3
09 8.08 З 8 10 км 9/1 300 м
[Sc diur, vesp Ac trans Ci sp]
+26.5 +23.0 81 +35 +37 очень
душно
1014.9 973.0
12 8.08 З 12 10 км 9/9 300 м
[Sc diur, vesp Ci sp]
+30.0 +24.4 72 +42 +42 опасность
перегрева
1012.4 971.6
15 8.08 З 10 10 км 9/6 600 м
[Cu med, cong Ci sp]
+29.2 +23.3 71 +40 +40 очень
душно
1010.9 969.7
18 8.08 З 6 10 км 9/1 1000 м
[Cb calv Ci sp]
+29.5 +22.5 66 +39 +39 очень
душно
1010.9 969.5 +31.5
21 8.08 З 4 10 км 6/0
[Ci sp]
+26.8 +23.0 80 +36 +36 очень
душно
1011.8 970.3
03 9.08 З 4 10 км 6/0
[Ci sp]
+24.5 +23.5 94 +33 +33 очень
душно
1011.5 970.1
06 9.08 З 6 10 км 9/1 600 м
[Sc Ac As Ci]
+24.5 +23.5 94 +33 +33 очень
душно
1012.6 971.2 +24.5
09 9.08 З 8 10 км 9/4 300 м
[Cu med, cong Ac trans Ci sp]
+29.0 +24.1 75 +40 +41 очень
душно
1013.8 972.5
12 9.08 З 8 10 км 9/8 300 м
[Sc diur, vesp Ci sp]
+30.7 +23.4 65 +41 +42 опасность
перегрева
1012.5 971.2
15 9.08 Ю 6 10 км в посл. час гроза {дождь} 9/1 1000 м
[Cb cap Ac lent Ci sp]
+26.5 +24.9 91 +38 +40 очень
душно
1010.7 969.1
18 9.08 Ю 4 10 км {гроза, дождь} 9/1 1000 м
[Cb cap Ac lent Ci sp]
+26.4 +23.7 85 +36 +36 очень
душно
1010.3 968.8 +31.0 7
21 9.08 Ю 6 10 км 9/0
[Ac As Ci sp]
+25.0 +22.9 88 +33 +33 очень
душно
1012.1 970.7
03 10.08 ЮВ 4 10 км гроза без осадков 9/1 1000 м
[Cb cap Ac As Ci sp]
+22.7 +21.4 92 +30 +30 очень
душно
1011.9 970.2
06 10.08 Ю 6 10 км {гроза} 9/0
[Ac As Ci sp]
+23.5 +22.1 92 +30 +31 очень
душно
1011.0 969.4 +13.5 8
09 10.08 З 6 10 км 9/9 600 м
[Sc diur, vesp Ac trans]
+27.1 +24.2 84 +38 +38 очень
душно
1013.2 971.6
12 10.08 ЮЗ 6 10 км в посл. час дождь 9/9 300 м
[Sc diur, vesp Ci sp]
+29.0 +24.4 76 +41 +42 опасность
перегрева
1012.7 971.3 2
15 10.08 ЮЗ 8 10 км 9/6 600 м
[Cu med, cong Ac trans Ci sp]
+31.0 +24.0 66 +43 +43 опасность
перегрева
1010.5 969.1
18 10.08 ЮЗ 4 10 км 9/4 1000 м
[Cb cap Ac trans Ci sp]
+28.6 +24.1 77 +40 +40 очень
душно
1011.1 969.6 +32.0 2
21 10.08 ЮЗ 4 10 км 9/0
[Ac trans Ci sp]
+26.5 +25.6 95 +39 +39 очень
душно
1013.2 971.8
06 11.08 ЮЗ 2 10 км 5/1 300 м
[Sc Ci sp]
+24.0 +24.0 100 +33 +33 очень
душно
1013.5 972.0 +23.5 2
09 11.08 З 8 10 км 6/4 300 м
[Sc Ci sp]
+28.3 +23.6 76 +39 +40 очень
душно
1014.6 973.2
12 11.08 З 8 10 км 9/8 300 м
[Sc diur, vesp Ci sp]
+31.2 +26.2 75 +47 +48 опасность
перегрева
1012.9 961.7
15 11.08 СЗ 14 10 км 9/6 600 м
[Cu med, cong Ci sp]
+31.6 +23.0 60 +42 +42 опасность
перегрева
1010.0 968.8
18 11.08 С 4 10 км 9/3 1000 м
[Cb cap Ci sp]
+30.5 +22.7 63 +40 +40 очень
душно
1010.9 969.6 +32.5
21 11.08 З 6 10 км 9/0
[Cs]
+27.7 +23.2 77 +37 +37 очень
душно
1012.0 970.7
03 12.08 З 6 10 км 9/0
[Cs]
+25.5 +23.4 88 +34 +34 очень
душно
1010.7 969.6
06 12.08 З 4 10 км 9/0
[Ac cast Cs]
+25.0 +23.6 92 +34 +34 очень
душно
1011.3 970.0 +24.8
09 12.08 СЗ 10 10 км 9/1 600 м
[Cu med, cong Ac trans Cs]
+29.5 +24.0 72 +41 +41 опасность
перегрева
1013.4 972.1
12 12.08 СЗ 12 10 км 9/4 600 м
[Cu med, cong Cs]
+31.6 +23.0 60 +42 +42 опасность
перегрева
1011.8 970.7
15 12.08 СЗ 12 10 км 9/6 600 м
[Cu med, cong Ci sp]
+33.5 +23.7 57 +45 +45 опасность
перегрева
1008.4 967.5
18 12.08 СЗ 6 10 км 9/1 1000 м
[Cb cap Ci sp]
+31.5 +22.5 59 +41 +41 опасность
перегрева
1008.0 966.9 +33.7
21 12.08 Ю 16 10 км зарница 10/3 1200 м
[Cb cap Ac As]
+29.5 +23.9 72 +41 +41 опасность
перегрева
1010.3 969.3
00 13.08 Ю 16 10 км зарница 10/3 1200 м
[Cb cap Ac As]
+29.5 +23.9 72 +41 +41 опасность
перегрева
1010.3 969.3
03 13.08 ЮЗ 4 10 км 9/0
[Cs]
+23.1 +20.7 86 +30 +30 очень
душно
1009.8 968.7
06 13.08 З 6 10 км 9/1 900 м
[Cb cap Ac As Ci fib]
+23.0 +20.6 86 +30 +30 очень
душно
1010.7 969.4 +23.0
09 13.08 Ю 8 10 км {дождь} 9/1 300 м
[Cb cap Ac As Ci sp]
+25.2 +21.1 78 +32 +33 очень
душно
1013.9 972.5
12 13.08 З 6 10 км гроза, ливневой дождь 9/1 900 м
[Cb cap Ac As Ci sp]
+22.3 +21.6 96 +29 +34 очень
душно
1013.0 971.1 3
15 13.08 З 10 10 км гроза без осадков 9/1 1000 м
[Cb cap Ac As Ci sp]
+24.0 +21.4 85 +30 +31 очень
душно
1009.0 967.2
18 13.08 ЮЗ 4 10 км 9/0
[Ac trans Ci sp]
+24.5 +21.6 84 +31 +31 очень
душно
1009.3 967.5 +27.3 3
21 13.08 ЮЗ 2 10 км 8/0
[Ac trans Cs]
+23.0 +22.3 96 +31 +31 очень
душно
1011.6 969.8
03 14.08 Ю 2 10 км 6/0
[Ci sp]
+22.0 +21.7 98 +29 +29 очень
душно
1012.0 970.0
06 14.08 штиль 0 10 км 6/0
[Ac trans Ci sp]
+21.8 +21.5 98 +28 +29 душно 1012.5 970.6 +21.5 3
09 14.08 З 6 10 км 9/4 300 м
[Sc Ci sp]
+26.1 +22.4 80 +34 +37 очень
душно
1014.5 972.7
12 14.08 З 10 10 км 9/6 300 м
[Sc diur, vesp Ci sp]
+29.3 +22.4 66 +38 +38 очень
душно
1013.7 972.2
15 14.08 ЮЗ 6 10 км 9/6 900 м
[Cu med, cong Ci sp]
+30.0 +21.6 61 +38 +39 очень
душно
1011.6 970.1
18 14.08 З 4 10 км 9/1 1200 м
[Cb calv Ac lent Ci sp]
+29.0 +21.8 65 +37 +37 очень
душно
1012.4 970.7 +31.0

 

Местоположение метеостанции Maradi (Нигер): широта 13.47 долгота 7.08 высота над уровнем моря 373 м.

В архиве по умолчанию представлена погода в Maradi за последнюю неделю. Архивные данные за месяц целиком и за предыдущие месяцы, начиная с января 2011 года, Вы можете получить, выбрав интересующий диапазон дат из раскрывающегося списка и нажав кнопку "Ввод!".


*Определитесь, кто Вы:
робот инопланетянин человек

Внимание! Время в таблицах - всемирное. Для получения местного времени необходимо прибавить поправку, которая в Maradi равна 1 ч.

Смотрите также архив погоды в соседних городах и на ближайших метеорологических станциях:

Погода в Birni-Nkonni (Нигер) (201 км)
Погода в Magaria (Нигер) (208 км)
Погода в Zinder (Нигер) (208 км)
Погода в Cano (Нигерия) (223 км)
Погода в Tahoua (Нигер) (253 км)
Погода в Goure (Нигер) (353 км)
Погода в Yelwa (Нигерия) (384 км)
Погода в Agadez (Нигер) (401 км)
Погода в Dosso (Нигер) (423 км)
Погода в Gaya (Нигер) (432 км)

Пояснения к столбцам:

Ветер - указаны скорость ветра в м/с - средняя за 10 мин, порывы в срок и между сроками (в фигурных скобках) и направление, откуда дует ветер: С - северный, СВ - северо-восточный, В - восточный, ЮВ - юго-восточный, Ю - южный, ЮЗ - юго-западный, З - западный, СЗ - северо-западный.
Видимость - горизонтальная дальность видимости в метрах или километрах. При видимости от 1 до 10 км при отсутствии осадков обычно наблюдается дымка, при ухудшении видимости до 1 км и менее - туман. В сухую погоду видимость может ухудшаться дымом, пылью или мглою.
Явления - указаны атмосферные явления, наблюдавшиеся в срок или в последний час перед сроком; фигурными скобками обозначены явления, наблюдавшиеся между сроками (за 1-3 часа до срока); квадратными скобками обозначены град или гололедные отложения с указанием их диаметра в мм.
Облачность - указаны через наклонную черту общая и нижняя облачность в баллах и высота нижней границы облаков в метрах; квадратными скобками обозначены формы облаков: Ci - перистые, Cs - перисто-слоистые, Cc - перисто-кучевые, Ac - высококучевые, As - высокослоистые, Sc - слоисто-кучевые, Ns - слоисто-дождевые, Cu - кучевые, Cb - кучево-дождевые. Подробнее классификацию облаков см. в Атласе облаков (PDF).
T - Температура воздуха - температура, измеренная на высоте 2 м над землей.
Td - Температура точки росы - температура, при понижении до которой содержащийся в воздухе водяной пар достигнет насыщения.
f - Относительная влажность воздуха - влажноcть воздуха, измеренная на высоте 2 м над землей.
Te - Эффективная температура - температура, которую ощущает одетый по сезону человек в тени. Характеристика душности погоды. При расчете учитывается влияние влажности воздуха и скорости ветра на теплоощущения человека.
Tes - Эффективная температура на солнце - температура, которую ощущает человек, с поправкой на солнечный нагрев. Характеристика знойности погоды. Зависит от высоты солнца над горизонтом, облачности и скорости ветра. Ночью, в пасмурную погоду, а также при ветре 12 м/с и более поправка равна нулю.
P - Атмосферное давление - приведенное к уровню моря атмосферное давление.
Po - Атмосферное давление - измеренное на уровне метеостанции атмосферное давление.
Tmin - Минимальная температура - минимум температуры воздуха на высоте 2 м над землей.
Tmax - Максимальная температура - максимум температуры воздуха на высоте 2 м над землей.
R - Количество осадков - Количество выпавших осадков за период времени, мм. При наведении курсора мыши на число - период времени, за который выпало указанное количество осадков.
R24 - Количество осадков - Количество выпавших осадков за 24 часа, мм.
S - Снежный покров - Высота снежного покрова, см. При наведении курсора мыши на число - состояние снежного покрова и степень покрытия местности в баллах.